Year,Month,Day,Hour,Minute,Value (Times are PST for temperature in C)
2011,05,20,00,00,10.10
2011,05,20,00,01,10.00
2011,05,20,00,02,9.90
2011,05,20,00,03,9.90
2011,05,20,00,04,9.90
2011,05,20,00,05,9.90
2011,05,20,00,06,9.80
2011,05,20,00,07,9.80
2011,05,20,00,08,9.80
2011,05,20,00,09,9.70
2011,05,20,00,10,9.70
2011,05,20,00,11,9.70
2011,05,20,00,12,9.70
2011,05,20,00,13,9.70
2011,05,20,00,14,9.60
2011,05,20,00,15,9.60
2011,05,20,00,16,9.60
2011,05,20,00,17,9.60
2011,05,20,00,18,9.60
2011,05,20,00,19,9.50
2011,05,20,00,20,9.50
2011,05,20,00,21,9.50
2011,05,20,00,22,9.50
2011,05,20,00,23,9.40
2011,05,20,00,24,9.40
2011,05,20,00,25,9.40
2011,05,20,00,26,9.30
2011,05,20,00,27,9.30
2011,05,20,00,28,9.30
2011,05,20,00,29,9.30
2011,05,20,00,30,9.20
2011,05,20,00,31,9.20
2011,05,20,00,32,9.20
2011,05,20,00,33,9.20
2011,05,20,00,34,9.20
2011,05,20,00,35,9.20
2011,05,20,00,36,9.10
2011,05,20,00,37,9.10
2011,05,20,00,38,9.10
2011,05,20,00,39,9.00
2011,05,20,00,40,9.00
2011,05,20,00,41,9.00
2011,05,20,00,42,9.00
2011,05,20,00,43,8.90
2011,05,20,00,44,8.90
2011,05,20,00,45,8.90
2011,05,20,00,46,8.90
2011,05,20,00,47,8.80
2011,05,20,00,48,8.80
2011,05,20,00,49,8.80
2011,05,20,00,50,8.70
2011,05,20,00,51,8.70
2011,05,20,00,52,8.70
2011,05,20,00,53,8.70
2011,05,20,00,54,8.70
2011,05,20,00,55,8.70
2011,05,20,00,56,8.60
2011,05,20,00,57,8.60
2011,05,20,00,58,8.60
2011,05,20,00,59,8.50
2011,05,20,01,00,8.50
2011,05,20,01,01,8.50
2011,05,20,01,02,8.50
2011,05,20,01,03,8.40
2011,05,20,01,04,8.40
2011,05,20,01,05,8.40
2011,05,20,01,06,8.40
2011,05,20,01,07,8.40
2011,05,20,01,08,8.30
2011,05,20,01,09,8.30
2011,05,20,01,10,8.30
2011,05,20,01,11,8.30
2011,05,20,01,12,8.30
2011,05,20,01,13,8.30
2011,05,20,01,14,8.30
2011,05,20,01,15,8.20
2011,05,20,01,16,8.20
2011,05,20,01,17,8.30
2011,05,20,01,18,8.30
2011,05,20,01,19,8.30
2011,05,20,01,20,8.30
2011,05,20,01,21,8.30
2011,05,20,01,22,8.30
2011,05,20,01,23,8.30
2011,05,20,01,24,8.30
2011,05,20,01,25,8.30
2011,05,20,01,26,8.30
2011,05,20,01,27,8.20
2011,05,20,01,28,8.20
2011,05,20,01,29,8.20
2011,05,20,01,30,8.20
2011,05,20,01,31,8.20
2011,05,20,01,32,8.20
2011,05,20,01,33,8.10
2011,05,20,01,34,8.10
2011,05,20,01,35,8.10
2011,05,20,01,36,8.10
2011,05,20,01,37,8.10
2011,05,20,01,38,8.00
2011,05,20,01,39,8.00
2011,05,20,01,40,8.00
2011,05,20,01,41,7.90
2011,05,20,01,42,7.90
2011,05,20,01,43,7.90
2011,05,20,01,44,7.80
2011,05,20,01,45,7.80
2011,05,20,01,46,7.80
2011,05,20,01,47,7.80
2011,05,20,01,48,7.80
2011,05,20,01,49,7.80
2011,05,20,01,50,7.80
2011,05,20,01,51,7.70
2011,05,20,01,52,7.70
2011,05,20,01,53,7.70
2011,05,20,01,54,7.70
2011,05,20,01,55,7.60
2011,05,20,01,56,7.60
2011,05,20,01,57,7.60
2011,05,20,01,58,7.60
2011,05,20,01,59,7.60
2011,05,20,02,00,7.50
2011,05,20,02,01,7.50
2011,05,20,02,02,7.50
2011,05,20,02,03,7.50
2011,05,20,02,04,7.50
2011,05,20,02,05,7.50
2011,05,20,02,06,7.50
2011,05,20,02,07,7.40
2011,05,20,02,08,7.40
2011,05,20,02,09,7.40
2011,05,20,02,10,7.40
2011,05,20,02,11,7.40
2011,05,20,02,12,7.40
2011,05,20,02,13,7.30
2011,05,20,02,14,7.30
2011,05,20,02,15,7.30
2011,05,20,02,16,7.30
2011,05,20,02,17,7.30
2011,05,20,02,18,7.30
2011,05,20,02,19,7.30
2011,05,20,02,20,7.30
2011,05,20,02,21,7.30
2011,05,20,02,22,7.30
2011,05,20,02,23,7.30
2011,05,20,02,24,7.30
2011,05,20,02,25,7.20
2011,05,20,02,26,7.20
2011,05,20,02,27,7.30
2011,05,20,02,28,7.30
2011,05,20,02,29,7.30
2011,05,20,02,30,7.30
2011,05,20,02,31,7.30
2011,05,20,02,32,7.20
2011,05,20,02,33,7.20
2011,05,20,02,34,7.20
2011,05,20,02,35,7.20
2011,05,20,02,36,7.20
2011,05,20,02,37,7.20
2011,05,20,02,38,7.20
2011,05,20,02,39,7.20
2011,05,20,02,40,7.20
2011,05,20,02,41,7.20
2011,05,20,02,42,7.30
2011,05,20,02,43,7.30
2011,05,20,02,44,7.30
2011,05,20,02,45,7.30
2011,05,20,02,46,7.30
2011,05,20,02,47,7.30
2011,05,20,02,48,7.30
2011,05,20,02,49,7.30
2011,05,20,02,50,7.30
2011,05,20,02,51,7.30
2011,05,20,02,52,7.30
2011,05,20,02,53,7.30
2011,05,20,02,54,7.30
2011,05,20,02,55,7.30
2011,05,20,02,56,7.30
2011,05,20,02,57,7.30
2011,05,20,02,58,7.30
2011,05,20,02,59,7.30
2011,05,20,03,00,7.30
2011,05,20,03,01,7.30
2011,05,20,03,02,7.30
2011,05,20,03,03,7.30
2011,05,20,03,04,7.20
2011,05,20,03,05,7.20
2011,05,20,03,06,7.20
2011,05,20,03,07,7.20
2011,05,20,03,08,7.20
2011,05,20,03,09,7.20
2011,05,20,03,10,7.20
2011,05,20,03,11,7.10
2011,05,20,03,12,7.10
2011,05,20,03,13,7.10
2011,05,20,03,14,7.10
2011,05,20,03,15,7.10
2011,05,20,03,16,7.10
2011,05,20,03,17,7.00
2011,05,20,03,18,7.00
2011,05,20,03,19,7.00
2011,05,20,03,20,7.00
2011,05,20,03,21,7.00
2011,05,20,03,22,6.90
2011,05,20,03,23,6.90
2011,05,20,03,24,6.90
2011,05,20,03,25,6.90
2011,05,20,03,26,6.80
2011,05,20,03,27,6.80
2011,05,20,03,28,6.80
2011,05,20,03,29,6.80
2011,05,20,03,30,6.80
2011,05,20,03,31,6.80
2011,05,20,03,32,6.80
2011,05,20,03,33,6.80
2011,05,20,03,34,6.70
2011,05,20,03,35,6.70
2011,05,20,03,36,6.70
2011,05,20,03,37,6.70
2011,05,20,03,38,6.70
2011,05,20,03,39,6.60
2011,05,20,03,40,6.60
2011,05,20,03,41,6.60
2011,05,20,03,42,6.60
2011,05,20,03,43,6.60
2011,05,20,03,44,6.60
2011,05,20,03,45,6.60
2011,05,20,03,46,6.60
2011,05,20,03,47,6.60
2011,05,20,03,48,6.60
2011,05,20,03,49,6.60
2011,05,20,03,50,6.60
2011,05,20,03,51,6.60
2011,05,20,03,52,6.60
2011,05,20,03,53,6.60
2011,05,20,03,54,6.60
2011,05,20,03,55,6.60
2011,05,20,03,56,6.50
2011,05,20,03,57,6.40
2011,05,20,03,58,6.40
2011,05,20,03,59,6.40
2011,05,20,04,00,6.40
2011,05,20,04,01,6.40
2011,05,20,04,02,6.40
2011,05,20,04,03,6.40
2011,05,20,04,04,6.40
2011,05,20,04,05,6.40
2011,05,20,04,06,6.40
2011,05,20,04,07,6.40
2011,05,20,04,08,6.40
2011,05,20,04,09,6.40
2011,05,20,04,10,6.40
2011,05,20,04,11,6.40
2011,05,20,04,12,6.40
2011,05,20,04,13,6.40
2011,05,20,04,14,6.60
2011,05,20,04,15,6.60
2011,05,20,04,16,6.60
2011,05,20,04,17,6.60
2011,05,20,04,18,6.60
2011,05,20,04,19,6.60
2011,05,20,04,20,6.60
2011,05,20,04,21,6.60
2011,05,20,04,22,6.60
2011,05,20,04,23,6.60
2011,05,20,04,24,6.60
2011,05,20,04,25,6.60
2011,05,20,04,26,6.60
2011,05,20,04,27,6.60
2011,05,20,04,28,6.60
2011,05,20,04,29,6.60
2011,05,20,04,30,6.60
2011,05,20,04,31,6.60
2011,05,20,04,32,6.60
2011,05,20,04,33,6.50
2011,05,20,04,34,6.40
2011,05,20,04,35,6.40
2011,05,20,04,36,6.40
2011,05,20,04,37,6.40
2011,05,20,04,38,6.40
2011,05,20,04,39,6.40
2011,05,20,04,40,6.40
2011,05,20,04,41,6.40
2011,05,20,04,42,6.40
2011,05,20,04,43,6.40
2011,05,20,04,44,6.40
2011,05,20,04,45,6.40
2011,05,20,04,46,6.40
2011,05,20,04,47,6.40
2011,05,20,04,48,6.40
2011,05,20,04,49,6.40
2011,05,20,04,50,6.40
2011,05,20,04,51,6.30
2011,05,20,04,52,6.30
2011,05,20,04,53,6.30
2011,05,20,04,54,6.30
2011,05,20,04,55,6.30
2011,05,20,04,56,6.30
2011,05,20,04,57,6.30
2011,05,20,04,58,6.30
2011,05,20,04,59,6.30
2011,05,20,05,00,6.30
2011,05,20,05,01,6.30
2011,05,20,05,02,6.30
2011,05,20,05,03,6.30
2011,05,20,05,04,6.30
2011,05,20,05,21,5.90
2011,05,20,05,22,5.90
2011,05,20,05,23,5.90
2011,05,20,05,24,5.90
2011,05,20,05,25,5.90
2011,05,20,05,26,5.90
2011,05,20,05,27,5.80
2011,05,20,05,28,5.80
2011,05,20,05,29,5.80
2011,05,20,05,30,5.80
2011,05,20,05,31,5.80
2011,05,20,05,32,5.80
2011,05,20,05,33,5.70
2011,05,20,05,34,5.70
2011,05,20,05,35,5.70
2011,05,20,05,36,5.70
2011,05,20,05,37,5.70
2011,05,20,05,38,5.70
2011,05,20,05,39,5.70
2011,05,20,05,40,5.70
2011,05,20,05,41,5.70
2011,05,20,05,42,5.70
2011,05,20,05,43,5.70
2011,05,20,05,44,5.70
2011,05,20,05,45,5.70
2011,05,20,05,46,5.70
2011,05,20,05,47,5.70
2011,05,20,05,48,5.70
2011,05,20,05,49,5.70
2011,05,20,05,50,5.70
2011,05,20,05,51,5.70
2011,05,20,05,52,5.70
2011,05,20,05,53,5.70
2011,05,20,05,54,5.70
2011,05,20,05,55,5.70
2011,05,20,05,56,5.70
2011,05,20,05,57,5.70
2011,05,20,05,58,5.70
2011,05,20,05,59,5.70
2011,05,20,06,00,5.70
2011,05,20,06,01,5.70
2011,05,20,06,02,5.70
2011,05,20,06,03,5.70
2011,05,20,06,04,5.70
2011,05,20,06,05,5.80
2011,05,20,06,06,5.80
2011,05,20,06,07,5.80
2011,05,20,06,08,5.80
2011,05,20,06,09,5.80
2011,05,20,06,10,5.80
2011,05,20,06,11,5.90
2011,05,20,06,12,5.90
2011,05,20,06,13,5.90
2011,05,20,06,14,6.00
2011,05,20,06,15,6.00
2011,05,20,06,16,6.10
2011,05,20,06,17,6.20
2011,05,20,06,18,6.20
2011,05,20,06,19,6.20
2011,05,20,06,20,6.20
2011,05,20,06,21,6.30
2011,05,20,06,22,6.30
2011,05,20,06,23,6.40
2011,05,20,06,24,6.40
2011,05,20,06,25,6.50
2011,05,20,06,26,6.60
2011,05,20,06,27,6.70
2011,05,20,06,28,6.80
2011,05,20,06,29,6.90
2011,05,20,06,30,7.00
2011,05,20,06,31,7.10
2011,05,20,06,32,7.20
2011,05,20,06,33,7.30
2011,05,20,06,34,7.40
2011,05,20,06,35,7.50
2011,05,20,06,36,7.50
2011,05,20,06,37,7.50
2011,05,20,06,38,7.50
2011,05,20,06,39,7.50
2011,05,20,06,40,7.50
2011,05,20,06,41,7.50
2011,05,20,06,42,7.50
2011,05,20,06,43,7.50
2011,05,20,06,44,7.50
2011,05,20,06,45,7.60
2011,05,20,06,46,7.60
2011,05,20,06,47,7.70
2011,05,20,06,48,7.70
2011,05,20,06,49,7.80
2011,05,20,06,50,7.80
2011,05,20,06,51,7.90
2011,05,20,06,52,8.00
2011,05,20,06,53,8.00
2011,05,20,06,54,8.10
2011,05,20,06,55,8.20
2011,05,20,06,56,8.20
2011,05,20,06,57,8.20
2011,05,20,06,58,8.30
2011,05,20,06,59,8.30
2011,05,20,07,00,8.30
2011,05,20,07,01,8.40
2011,05,20,07,02,8.50
2011,05,20,07,03,8.50
2011,05,20,07,04,8.70
2011,05,20,07,05,8.80
2011,05,20,07,06,8.90
2011,05,20,07,07,9.00
2011,05,20,07,08,9.20
2011,05,20,07,09,9.20
2011,05,20,07,10,9.20
2011,05,20,07,11,9.30
2011,05,20,07,12,9.40
2011,05,20,07,13,9.40
2011,05,20,07,14,9.50
2011,05,20,07,15,9.60
2011,05,20,07,16,9.70
2011,05,20,07,17,9.70
2011,05,20,07,18,9.70
2011,05,20,07,19,9.70
2011,05,20,07,20,9.70
2011,05,20,07,21,9.70
2011,05,20,07,22,9.70
2011,05,20,07,23,9.70
2011,05,20,07,24,9.70
2011,05,20,07,25,9.70
2011,05,20,07,26,9.70
2011,05,20,07,27,9.70
2011,05,20,07,28,9.70
2011,05,20,07,29,9.70
2011,05,20,07,30,9.70
2011,05,20,07,31,9.80
2011,05,20,07,32,9.90
2011,05,20,07,33,10.10
2011,05,20,07,34,10.20
2011,05,20,07,35,10.40
2011,05,20,07,36,10.50
2011,05,20,07,37,10.70
2011,05,20,07,38,10.80
2011,05,20,07,39,11.00
2011,05,20,07,40,11.20
2011,05,20,07,41,11.30
2011,05,20,07,42,11.50
2011,05,20,07,43,11.60
2011,05,20,07,44,11.70
2011,05,20,07,45,11.70
2011,05,20,07,46,11.80
2011,05,20,07,47,11.80
2011,05,20,07,48,11.80
2011,05,20,07,49,11.80
2011,05,20,07,50,11.80
2011,05,20,07,51,11.90
2011,05,20,07,52,11.90
2011,05,20,07,53,12.00
2011,05,20,07,54,12.00
2011,05,20,07,55,12.00
2011,05,20,07,56,12.10
2011,05,20,07,57,12.10
2011,05,20,07,58,12.00
2011,05,20,07,59,12.00
2011,05,20,08,00,12.00
2011,05,20,08,01,12.00
2011,05,20,08,02,12.00
2011,05,20,08,03,12.10
2011,05,20,08,04,12.20
2011,05,20,08,05,12.20
2011,05,20,08,06,12.20
2011,05,20,08,07,12.20
2011,05,20,08,08,12.20
2011,05,20,08,09,12.60
2011,05,20,08,10,12.70
2011,05,20,08,11,12.80
2011,05,20,08,12,12.80
2011,05,20,08,13,12.90
2011,05,20,08,14,13.00
2011,05,20,08,15,13.10
2011,05,20,08,16,13.10
2011,05,20,08,17,13.10
2011,05,20,08,18,13.20
2011,05,20,08,19,13.20
2011,05,20,08,20,13.30
2011,05,20,08,21,13.30
2011,05,20,08,22,13.30
2011,05,20,08,23,13.40
2011,05,20,08,24,13.40
2011,05,20,08,25,13.40
2011,05,20,08,26,13.40
2011,05,20,08,27,13.30
2011,05,20,08,28,13.30
2011,05,20,08,29,13.30
2011,05,20,08,30,13.40
2011,05,20,08,31,13.40
2011,05,20,08,32,13.40
2011,05,20,08,33,13.40
2011,05,20,08,34,13.50
2011,05,20,08,35,13.50
2011,05,20,08,36,13.50
2011,05,20,08,37,13.50
2011,05,20,08,38,13.50
2011,05,20,08,39,13.60
2011,05,20,08,40,13.60
2011,05,20,08,41,13.70
2011,05,20,08,42,13.70
2011,05,20,08,43,13.60
2011,05,20,08,44,13.50
2011,05,20,08,45,13.50
2011,05,20,08,46,13.40
2011,05,20,08,47,13.30
2011,05,20,08,48,13.30
2011,05,20,08,49,13.20
2011,05,20,08,50,13.20
2011,05,20,08,51,13.10
2011,05,20,08,52,13.00
2011,05,20,08,53,12.90
2011,05,20,08,54,12.80
2011,05,20,08,55,12.80
2011,05,20,08,56,12.70
2011,05,20,08,57,12.60
2011,05,20,08,58,12.50
2011,05,20,08,59,12.40
2011,05,20,09,00,12.30
2011,05,20,09,01,12.30
2011,05,20,09,02,12.30
2011,05,20,09,03,12.30
2011,05,20,09,04,12.30
2011,05,20,09,05,12.30
2011,05,20,09,06,12.30
2011,05,20,09,07,12.30
2011,05,20,09,08,12.30
2011,05,20,09,09,12.30
2011,05,20,09,10,12.20
2011,05,20,09,11,12.20
2011,05,20,09,12,12.10
2011,05,20,09,13,12.10
2011,05,20,09,14,12.10
2011,05,20,09,15,12.20
2011,05,20,09,16,12.20
2011,05,20,09,17,12.20
2011,05,20,09,18,12.20
2011,05,20,09,19,12.20
2011,05,20,09,20,12.20
2011,05,20,09,21,12.20
2011,05,20,09,22,12.20
2011,05,20,09,23,12.20
2011,05,20,09,24,12.20
2011,05,20,09,25,12.20
2011,05,20,10,33,15.30
2011,05,20,10,34,15.30
2011,05,20,10,35,15.30
2011,05,20,10,36,15.30
2011,05,20,10,37,15.20
2011,05,20,10,38,15.10
2011,05,20,10,39,15.00
2011,05,20,10,40,14.80
2011,05,20,10,41,14.70
2011,05,20,10,42,14.60
2011,05,20,10,43,14.50
2011,05,20,10,44,14.50
2011,05,20,10,45,14.60
2011,05,20,10,46,14.60
2011,05,20,10,47,14.70
2011,05,20,10,48,14.60
2011,05,20,10,49,14.60
2011,05,20,10,50,14.60
2011,05,20,10,51,14.60
2011,05,20,10,52,14.60
2011,05,20,10,53,14.70
2011,05,20,10,54,14.70
2011,05,20,10,55,14.70
2011,05,20,10,56,14.70
2011,05,20,10,57,14.70
2011,05,20,10,58,14.70
2011,05,20,10,59,14.60
2011,05,20,11,00,14.60
2011,05,20,11,01,14.60
2011,05,20,11,02,14.70
2011,05,20,11,03,14.70
2011,05,20,11,04,14.80
2011,05,20,11,05,14.90
2011,05,20,11,06,15.10
2011,05,20,11,07,15.30
2011,05,20,11,08,15.50
2011,05,20,11,09,15.60
2011,05,20,11,10,15.70
2011,05,20,11,11,15.80
2011,05,20,11,12,15.80
2011,05,20,11,13,15.80
2011,05,20,11,14,15.90
2011,05,20,11,15,15.90
2011,05,20,11,16,15.80
2011,05,20,11,17,15.70
2011,05,20,11,18,15.60
2011,05,20,11,19,15.60
2011,05,20,11,20,15.60
2011,05,20,11,21,15.60
2011,05,20,11,22,15.60
2011,05,20,11,23,15.60
2011,05,20,11,24,15.60
2011,05,20,11,25,15.60
2011,05,20,11,26,15.60
2011,05,20,11,27,15.60
2011,05,20,11,28,15.60
2011,05,20,11,29,15.50
2011,05,20,11,30,15.60
2011,05,20,11,31,15.80
2011,05,20,11,32,15.90
2011,05,20,11,33,15.80
2011,05,20,11,34,15.80
2011,05,20,11,35,16.00
2011,05,20,11,36,16.10
2011,05,20,11,37,16.20
2011,05,20,11,38,16.40
2011,05,20,11,39,16.60
2011,05,20,11,40,16.70
2011,05,20,11,41,16.80
2011,05,20,11,42,16.90
2011,05,20,11,43,16.90
2011,05,20,11,44,17.00
2011,05,20,11,45,17.10
2011,05,20,11,46,17.10
2011,05,20,11,47,17.10
2011,05,20,11,48,17.10
2011,05,20,11,49,17.30
2011,05,20,11,50,17.30
2011,05,20,11,51,17.40
2011,05,20,11,52,17.50
2011,05,20,11,53,17.60
2011,05,20,11,54,17.60
2011,05,20,11,55,17.70
2011,05,20,11,56,17.70
2011,05,20,11,57,17.80
2011,05,20,11,58,17.90
2011,05,20,11,59,17.90
2011,05,20,12,00,17.90
2011,05,20,12,01,17.90
2011,05,20,12,02,18.10
2011,05,20,12,03,18.20
2011,05,20,12,04,18.10
2011,05,20,12,05,18.00
2011,05,20,12,06,17.80
2011,05,20,12,07,17.70
2011,05,20,12,08,17.70
2011,05,20,12,09,17.60
2011,05,20,12,10,17.60
2011,05,20,12,11,17.60
2011,05,20,12,12,17.60
2011,05,20,12,13,17.50
2011,05,20,12,14,17.40
2011,05,20,12,15,17.40
2011,05,20,12,16,17.40
2011,05,20,12,17,17.40
2011,05,20,12,18,17.40
2011,05,20,12,19,17.20
2011,05,20,12,20,17.00
2011,05,20,12,21,16.90
2011,05,20,12,22,17.00
2011,05,20,12,23,17.10
2011,05,20,12,24,17.00
2011,05,20,12,25,16.90
2011,05,20,12,26,16.90
2011,05,20,12,27,17.00
2011,05,20,12,28,17.00
2011,05,20,12,29,17.00
2011,05,20,12,30,17.10
2011,05,20,12,31,17.20
2011,05,20,12,32,17.30
2011,05,20,12,33,17.30
2011,05,20,12,34,17.40
2011,05,20,12,35,17.50
2011,05,20,12,36,17.60
2011,05,20,12,37,17.70
2011,05,20,12,38,17.70
2011,05,20,12,39,17.60
2011,05,20,12,40,17.50
2011,05,20,12,41,17.40
2011,05,20,12,42,17.20
2011,05,20,12,43,17.20
2011,05,20,12,44,17.30
2011,05,20,12,45,17.30
2011,05,20,12,46,17.30
2011,05,20,12,47,17.30
2011,05,20,12,48,17.30
2011,05,20,12,49,17.30
2011,05,20,12,50,17.50
2011,05,20,12,51,17.60
2011,05,20,12,52,17.60
2011,05,20,12,53,17.70
2011,05,20,12,54,17.60
2011,05,20,12,55,17.60
2011,05,20,12,56,17.70
2011,05,20,12,57,17.80
2011,05,20,12,58,17.90
2011,05,20,12,59,18.00
2011,05,20,13,00,18.10
2011,05,20,13,01,18.20
2011,05,20,13,02,18.40
2011,05,20,13,03,18.50
2011,05,20,13,04,18.60
2011,05,20,13,05,18.60
2011,05,20,13,06,18.70
2011,05,20,13,07,18.70
2011,05,20,13,08,18.60
2011,05,20,13,09,18.60
2011,05,20,13,10,18.60
2011,05,20,13,11,18.40
2011,05,20,13,12,18.40
2011,05,20,13,13,18.40
2011,05,20,13,14,18.40
2011,05,20,13,15,18.50
2011,05,20,13,16,18.50
2011,05,20,13,17,18.60
2011,05,20,13,18,18.70
2011,05,20,13,19,18.90
2011,05,20,13,20,19.00
2011,05,20,13,21,19.10
2011,05,20,13,22,19.20
2011,05,20,13,23,19.20
2011,05,20,13,24,19.10
2011,05,20,13,25,19.10
2011,05,20,13,26,19.10
2011,05,20,13,27,19.10
2011,05,20,13,28,19.00
2011,05,20,13,29,18.60
2011,05,20,13,30,18.70
2011,05,20,13,31,18.80
2011,05,20,13,32,18.80
2011,05,20,13,33,18.80
2011,05,20,13,34,18.90
2011,05,20,13,35,19.00
2011,05,20,13,36,19.00
2011,05,20,13,37,18.90
2011,05,20,13,38,18.70
2011,05,20,13,39,18.60
2011,05,20,13,40,18.40
2011,05,20,13,41,18.40
2011,05,20,13,42,18.50
2011,05,20,13,43,18.50
2011,05,20,13,44,18.50
2011,05,20,13,45,18.30
2011,05,20,13,46,18.20
2011,05,20,13,47,18.20
2011,05,20,13,48,18.20
2011,05,20,13,49,18.20
2011,05,20,13,50,18.20
2011,05,20,13,51,18.20
2011,05,20,13,52,18.20
2011,05,20,13,53,18.10
2011,05,20,13,54,18.10
2011,05,20,13,55,18.00
2011,05,20,13,56,17.90
2011,05,20,13,57,17.90
2011,05,20,13,58,17.90
2011,05,20,13,59,18.10
2011,05,20,14,00,18.30
2011,05,20,14,01,18.40
2011,05,20,14,02,18.60
2011,05,20,14,03,18.70
2011,05,20,14,04,18.90
2011,05,20,14,05,19.10
2011,05,20,14,06,19.30
2011,05,20,14,07,19.30
2011,05,20,14,08,19.40
2011,05,20,14,09,19.50
2011,05,20,14,10,19.50
2011,05,20,14,11,19.50
2011,05,20,14,12,19.40
2011,05,20,14,13,19.50
2011,05,20,14,14,19.60
2011,05,20,14,15,19.80
2011,05,20,14,16,19.80
2011,05,20,14,17,19.80
2011,05,20,14,18,19.90
2011,05,20,14,19,19.90
2011,05,20,14,20,19.80
2011,05,20,14,21,19.60
2011,05,20,14,22,19.60
2011,05,20,14,23,19.60
2011,05,20,14,24,19.60
2011,05,20,14,25,19.60
2011,05,20,14,26,19.70
2011,05,20,14,27,19.70
2011,05,20,14,28,19.80
2011,05,20,14,29,19.90
2011,05,20,14,30,19.90
2011,05,20,14,31,19.90
2011,05,20,14,32,19.90
2011,05,20,14,33,20.00
2011,05,20,14,34,20.10
2011,05,20,14,35,20.20
2011,05,20,14,36,20.20
2011,05,20,14,37,20.20
2011,05,20,14,38,20.30
2011,05,20,14,39,20.30
2011,05,20,14,40,20.40
2011,05,20,14,41,20.40
2011,05,20,14,42,20.50
2011,05,20,14,43,20.50
2011,05,20,14,44,20.50
2011,05,20,14,45,20.50
2011,05,20,14,46,20.40
2011,05,20,14,47,20.40
2011,05,20,14,48,20.30
2011,05,20,14,49,20.30
2011,05,20,14,50,20.20
2011,05,20,14,51,20.30
2011,05,20,14,52,20.30
2011,05,20,14,53,20.40
2011,05,20,14,54,20.40
2011,05,20,14,55,20.50
2011,05,20,14,56,20.60
2011,05,20,14,57,20.50
2011,05,20,14,58,20.50
2011,05,20,14,59,20.40
2011,05,20,15,00,20.40
2011,05,20,15,01,20.40
2011,05,20,15,02,20.50
2011,05,20,15,03,20.50
2011,05,20,15,04,20.50
2011,05,20,15,05,20.50
2011,05,20,15,06,20.60
2011,05,20,15,07,20.70
2011,05,20,15,08,20.60
2011,05,20,15,09,20.60
2011,05,20,15,10,20.60
2011,05,20,15,11,20.70
2011,05,20,15,12,20.70
2011,05,20,15,13,20.70
2011,05,20,15,14,20.70
2011,05,20,15,15,20.60
2011,05,20,15,16,20.50
2011,05,20,15,17,20.40
2011,05,20,15,18,20.30
2011,05,20,15,19,20.30
2011,05,20,15,20,20.20
2011,05,20,15,21,20.20
2011,05,20,15,22,20.20
2011,05,20,15,23,20.20
2011,05,20,15,24,20.20
2011,05,20,15,25,20.20
2011,05,20,15,26,20.20
2011,05,20,15,27,20.20
2011,05,20,15,28,20.20
2011,05,20,15,29,20.10
2011,05,20,15,30,20.10
2011,05,20,15,31,20.20
2011,05,20,15,32,20.20
2011,05,20,15,33,20.20
2011,05,20,15,34,20.20
2011,05,20,15,35,20.20
2011,05,20,15,36,20.20
2011,05,20,15,37,20.20
2011,05,20,15,38,20.20
2011,05,20,15,39,20.10
2011,05,20,15,40,20.00
2011,05,20,15,41,19.90
2011,05,20,15,42,19.90
2011,05,20,15,43,20.00
2011,05,20,15,44,20.10
2011,05,20,15,45,20.20
2011,05,20,15,46,20.30
2011,05,20,15,47,20.30
2011,05,20,15,48,20.50
2011,05,20,15,49,20.50
2011,05,20,15,50,20.40
2011,05,20,15,51,20.40
2011,05,20,15,52,20.50
2011,05,20,15,53,20.60
2011,05,20,15,54,20.60
2011,05,20,15,55,20.70
2011,05,20,15,56,20.70
2011,05,20,15,57,20.60
2011,05,20,15,58,20.60
2011,05,20,15,59,20.60
2011,05,20,16,00,20.50
2011,05,20,16,01,20.50
2011,05,20,16,02,20.60
2011,05,20,16,03,20.60
2011,05,20,16,04,20.50
2011,05,20,16,05,20.40
2011,05,20,16,06,20.50
2011,05,20,16,07,20.50
2011,05,20,16,08,20.50
2011,05,20,16,09,20.50
2011,05,20,16,10,20.40
2011,05,20,16,11,20.40
2011,05,20,16,12,20.40
2011,05,20,16,13,20.30
2011,05,20,16,14,20.30
2011,05,20,16,15,20.40
2011,05,20,16,16,20.40
2011,05,20,16,17,20.40
2011,05,20,16,18,20.30
2011,05,20,16,19,20.30
2011,05,20,16,20,20.40
2011,05,20,16,21,20.50
2011,05,20,16,22,20.50
2011,05,20,16,23,20.50
2011,05,20,16,24,20.40
2011,05,20,16,25,20.40
2011,05,20,16,26,20.40
2011,05,20,16,27,20.40
2011,05,20,16,28,20.40
2011,05,20,16,29,20.40
2011,05,20,16,30,20.40
2011,05,20,16,31,20.40
2011,05,20,16,32,20.30
2011,05,20,16,33,20.30
2011,05,20,16,34,20.20
2011,05,20,16,35,20.20
2011,05,20,16,36,20.20
2011,05,20,16,37,20.30
2011,05,20,16,38,20.30
2011,05,20,16,39,20.30
2011,05,20,16,40,20.20
2011,05,20,16,41,20.20
2011,05,20,16,42,20.20
2011,05,20,16,43,20.20
2011,05,20,16,44,20.20
2011,05,20,16,45,20.20
2011,05,20,16,46,20.30
2011,05,20,16,47,20.40
2011,05,20,16,48,20.40
2011,05,20,16,49,20.40
2011,05,20,16,50,20.50
2011,05,20,16,51,20.50
2011,05,20,16,52,20.50
2011,05,20,16,53,20.40
2011,05,20,16,54,20.50
2011,05,20,16,55,20.60
2011,05,20,16,56,20.70
2011,05,20,16,57,20.70
2011,05,20,16,58,20.70
2011,05,20,16,59,20.70
2011,05,20,17,00,20.50
2011,05,20,17,01,20.30
2011,05,20,17,02,20.20
2011,05,20,17,03,20.10
2011,05,20,17,04,20.00
2011,05,20,17,05,19.90
2011,05,20,17,06,19.80
2011,05,20,17,07,19.70
2011,05,20,17,08,19.70
2011,05,20,17,09,19.80
2011,05,20,17,10,19.80
2011,05,20,17,11,19.80
2011,05,20,17,12,19.80
2011,05,20,17,13,19.80
2011,05,20,17,14,19.70
2011,05,20,17,15,19.60
2011,05,20,17,16,19.50
2011,05,20,17,17,19.40
2011,05,20,17,18,19.40
2011,05,20,17,19,19.40
2011,05,20,17,20,19.40
2011,05,20,17,21,19.50
2011,05,20,17,22,19.60
2011,05,20,17,23,19.60
2011,05,20,17,24,19.70
2011,05,20,17,25,19.80
2011,05,20,17,26,19.80
2011,05,20,17,27,19.60
2011,05,20,17,28,19.50
2011,05,20,17,29,19.40
2011,05,20,17,30,19.30
2011,05,20,17,31,19.40
2011,05,20,17,32,19.40
2011,05,20,17,33,19.30
2011,05,20,17,34,19.30
2011,05,20,17,35,19.20
2011,05,20,17,36,19.10
2011,05,20,17,37,19.10
2011,05,20,17,38,19.10
2011,05,20,17,39,19.10
2011,05,20,17,40,19.20
2011,05,20,17,41,19.40
2011,05,20,17,42,19.40
2011,05,20,17,43,19.50
2011,05,20,17,44,19.50
2011,05,20,17,45,19.40
2011,05,20,17,46,19.30
2011,05,20,17,47,19.40
2011,05,20,17,48,19.40
2011,05,20,17,49,19.40
2011,05,20,17,50,19.30
2011,05,20,17,51,19.30
2011,05,20,17,52,19.20
2011,05,20,17,53,19.30
2011,05,20,17,54,19.30
2011,05,20,17,55,19.30
2011,05,20,17,56,19.30
2011,05,20,17,57,19.30
2011,05,20,17,58,19.30
2011,05,20,17,59,19.30
2011,05,20,18,00,19.20
2011,05,20,18,01,19.10
2011,05,20,18,02,19.10
2011,05,20,18,03,19.10
2011,05,20,18,04,19.00
2011,05,20,18,05,18.90
2011,05,20,18,06,18.90
2011,05,20,18,07,18.70
2011,05,20,18,08,18.70
2011,05,20,18,09,18.60
2011,05,20,18,10,18.50
2011,05,20,18,11,18.50
2011,05,20,18,12,18.40
2011,05,20,18,13,18.40
2011,05,20,18,14,18.30
2011,05,20,18,15,18.20
2011,05,20,18,16,18.20
2011,05,20,18,17,18.10
2011,05,20,18,18,18.00
2011,05,20,18,19,17.90
2011,05,20,18,20,17.90
2011,05,20,18,21,17.90
2011,05,20,18,22,17.90
2011,05,20,18,23,17.90
2011,05,20,18,24,17.90
2011,05,20,18,25,17.70
2011,05,20,18,26,17.70
2011,05,20,18,27,17.70
2011,05,20,18,28,17.70
2011,05,20,18,29,17.70
2011,05,20,18,30,17.70
2011,05,20,18,31,17.70
2011,05,20,18,32,17.80
2011,05,20,18,33,17.80
2011,05,20,18,34,17.80
2011,05,20,18,35,17.80
2011,05,20,18,36,17.80
2011,05,20,18,37,17.80
2011,05,20,18,38,17.70
2011,05,20,18,39,17.70
2011,05,20,18,40,17.60
2011,05,20,18,41,17.60
2011,05,20,18,42,17.70
2011,05,20,18,43,17.70
2011,05,20,18,44,17.70
2011,05,20,18,45,17.70
2011,05,20,18,46,17.60
2011,05,20,18,47,17.60
2011,05,20,18,48,17.50
2011,05,20,18,49,17.60
2011,05,20,18,50,17.60
2011,05,20,18,51,17.50
2011,05,20,18,52,17.40
2011,05,20,18,53,17.20
2011,05,20,18,54,17.10
2011,05,20,18,55,17.00
2011,05,20,18,56,17.00
2011,05,20,18,57,16.90
2011,05,20,18,58,16.90
2011,05,20,18,59,16.90
2011,05,20,19,00,16.90
2011,05,20,19,01,16.80